Pompano Beach, FL

9:04 AM EDT on March 28, 2017 (GMT -0400)
Pompano Beach

Weather History for KPMP - August, 2014

Change the Weather History Date:

Monday, August 25, 2014

  Actual Average Record
Temperature  
Mean Temperature 87 °F -  
Max Temperature 93 °F 92 °F 96 °F (1982)
Min Temperature 81 °F 74 °F 0 °F (2013)
Cooling Degree Days 22    
Growing Degree Days 37 (Base 50)    
Moisture  
Dew Point 77 °F    
Average Humidity 74    
Maximum Humidity 88    
Minimum Humidity 59    
Precipitation  
Precipitation 0.15 in - - ()
Sea Level Pressure  
Sea Level Pressure 29.76 in    
Wind  
Wind Speed 10 mph (NNE)    
Max Wind Speed 22 mph    
Max Gust Speed 39 mph    
Visibility 8 miles    
Events Rain    
Averages and records for this station are not official NWS values.
T = Trace of Precipitation, MM = Missing Value Source: NWS Daily Summary

Daily Weather History Graph

Daily Weather History Graph

Search for Another Location

Airport or City:

Trip Planner

Search our weather history database for the weather conditions in past years. The results will help you decide how hot, cold, wet, or windy it might be!

Date:

Astronomy

Aug. 25, 2014 Rise Set
Actual Time 6:57 AM EDT 7:47 PM EDT
Civil Twilight 6:33 AM EDT 8:10 PM EDT
Nautical Twilight 6:05 AM EDT 8:38 PM EDT
Astronomical Twilight 5:37 AM EDT 9:07 PM EDT
Moon 6:56 AM EDT (8/25) 7:44 PM EDT (8/25)
Length of Visible Light 13h 37m
Length of Day
12h 49m
New Moon, 0% of the Moon is Illuminated
Aug 25
New Moon
Sep 2
First Quarter
Sep 8
Full
Sep 15
Last Quarter
Sep 24
New

Hourly Weather History & Observations

Time (EDT) Temp. Heat Index Dew Point Humidity Pressure Visibility Wind Dir Wind Speed Gust Speed Precip Events Conditions
12:53 AM 84.9 °F 95.3 °F 77.0 °F 77% 29.79 in 10.0 mi NW 3.5 mph - N/A   Unknown
1:53 AM 84.0 °F 93.7 °F 77.0 °F 79% 29.78 in 10.0 mi WNW 4.6 mph - N/A   Unknown
2:53 AM 82.9 °F 91.8 °F 77.0 °F 82% 29.76 in 9.0 mi NW 5.8 mph - N/A   Unknown
3:53 AM 82.9 °F 91.8 °F 77.0 °F 82% 29.75 in 9.0 mi NW 6.9 mph - N/A   Unknown
5:53 AM 82.0 °F 91.0 °F 78.1 °F 88% 29.74 in 7.0 mi WNW 9.2 mph - N/A   Unknown
6:53 AM 82.0 °F 91.0 °F 78.1 °F 88% 29.75 in 5.0 mi NW 9.2 mph - N/A   Mist
8:53 AM 82.9 °F 91.8 °F 77.0 °F 82% 29.76 in 10.0 mi NNW 8.1 mph - N/A   Mostly Cloudy
10:53 AM 91.0 °F 104.2 °F 77.0 °F 63% 29.76 in 10.0 mi North 5.8 mph - N/A   Scattered Clouds
11:53 AM 91.0 °F 104.2 °F 77.0 °F 63% 29.77 in 10.0 mi NE 11.5 mph - N/A   Scattered Clouds
12:53 PM 93.0 °F 106.7 °F 77.0 °F 59% 29.76 in 10.0 mi NE 15.0 mph - N/A   Scattered Clouds
1:53 PM 93.0 °F 108.9 °F 78.1 °F 62% 29.75 in 10.0 mi ENE 16.1 mph - N/A   Scattered Clouds
2:53 PM 91.0 °F 102.9 °F 75.9 °F 61% 29.75 in 10.0 mi NE 17.3 mph - 0.00 in   Unknown
3:53 PM 90.0 °F 101.3 °F 75.9 °F 63% 29.74 in 10.0 mi NE 17.3 mph 26.5 mph N/A   Unknown
4:53 PM 91.0 °F 101.6 °F 75.0 °F 59% 29.74 in 10.0 mi NE 18.4 mph - N/A   Unknown
5:48 PM 87.8 °F 99.7 °F 77.0 °F 70% 29.76 in 0.8 mi NE 21.9 mph 39.1 mph 0.13 in Rain Heavy Rain
5:53 PM 81.0 °F 87.9 °F 77.0 °F 88% 29.76 in 0.8 mi NE 18.4 mph 39.1 mph 0.15 in Rain Light Rain
5:57 PM 81.0 °F 87.9 °F 77.0 °F 88% 29.75 in 2.0 mi NE 20.7 mph 25.3 mph 0.00 in Rain Light Rain
6:04 PM 82.0 °F 90.2 °F 77.0 °F 85% 29.76 in 10.0 mi NE 18.4 mph 25.3 mph 0.00 in   Unknown
6:53 PM 82.9 °F 90.2 °F 75.0 °F 77% 29.76 in 10.0 mi NE 16.1 mph - 0.00 in   Unknown
7:53 PM 84.9 °F 92.1 °F 73.9 °F 69% 29.78 in 10.0 mi NNE 15.0 mph 24.2 mph N/A   Unknown
8:53 PM - - - N/A% 29.78 in 10.0 mi ENE 16.1 mph 24.2 mph N/A   Unknown
11:53 PM - - - N/A% 29.81 in 10.0 mi NE 17.3 mph 26.5 mph N/A   Unknown